{"data":{"norad_id":65600,"intl_designator":"2025-207J","name":"STARLINK-35229","alt_names":[],"object_type":"PAYLOAD","status":"ACTIVE","operator":null,"country":"US","launch_date":"2025-09-13","launch_site_code":"AFWTR","launch_vehicle":null,"mission":null,"orbit_class":"UNKNOWN","rcs_meters":null,"size_class":null,"mass_kg":null,"dimensions":null,"purposes":["comms"],"wikipedia_slug":null,"has_3d_model":false,"image_url":null,"decayed_at":null,"tle_current":{"epoch":"2026-09-20T22:00:03.000096Z","epoch_age_seconds":75971,"freshness":"FRESH","line1":"1 65600U 25207J   26263.91670139 -.00004402  00000+0 -13409-3 0  9999","line2":"2 65600  97.2853 326.4370 0001947  89.4860 191.0429 15.33445071  5806","mean_motion":15.33445071,"eccentricity":0.0001947,"inclination_deg":97.2853,"raan_deg":326.437,"arg_perigee_deg":89.486,"mean_anomaly_deg":191.0429,"bstar":-0.00013409,"rev_number":580,"period_min":93.906200308886,"perigee_km":464.21049874325,"apogee_km":466.87542772093,"semimajor_km":6843.6799632321,"source":"CELESTRAK","updated_at":"2026-09-21T09:00:35.654548Z"}}}